Time,TemperatureF,DewpointF,PressureIn,WindDirection,WindDirectionDegrees,WindSpeedMPH,WindSpeedGustMPH,Humidity,HourlyPrecipIn,Conditions,Clouds,dailyrainin,SoftwareType,DateUTC
2013-01-05 00:01:00,40.3,36.1,30.17,West,272,0.0,1.0,85,0.00,RA,,0.00,WeatherDisplay:10.37,2013-01-05 08:01:00,
2013-01-05 00:11:00,40.4,35.9,30.17,SW,235,0.0,1.0,84,0.00,OVC,,0.00,WeatherDisplay:10.37,2013-01-05 08:11:00,
2013-01-05 00:16:00,40.4,35.9,30.17,SW,235,0.0,0.0,84,0.00,OVC,,0.00,WeatherDisplay:10.37,2013-01-05 08:16:00,
2013-01-05 00:21:00,40.4,36.2,30.16,SW,235,0.0,0.0,85,0.00,OVC,,0.00,WeatherDisplay:10.37,2013-01-05 08:21:00,
2013-01-05 00:26:00,40.3,36.1,30.16,SW,235,0.0,0.0,85,0.00,OVC,,0.00,WeatherDisplay:10.37,2013-01-05 08:26:00,
2013-01-05 00:31:00,40.3,36.1,30.16,SW,235,0.0,1.0,85,0.00,OVC,,0.00,WeatherDisplay:10.37,2013-01-05 08:31:00,
2013-01-05 00:36:00,40.3,36.1,30.16,SW,235,0.0,1.0,85,0.00,OVC,,0.00,WeatherDisplay:10.37,2013-01-05 08:36:00,
2013-01-05 00:41:00,40.3,36.1,30.16,SSW,211,0.0,1.0,85,0.00,OVC,,0.00,WeatherDisplay:10.37,2013-01-05 08:41:00,
2013-01-05 00:46:00,40.4,35.9,30.16,SSW,209,0.0,1.0,84,0.00,OVC,,0.00,WeatherDisplay:10.37,2013-01-05 08:46:00,
2013-01-05 00:51:00,40.6,35.9,30.16,South,179,0.0,2.0,83,0.00,OVC,,0.00,WeatherDisplay:10.37,2013-01-05 08:51:00,
2013-01-05 00:56:00,40.8,35.7,30.16,SSW,192,0.0,1.0,82,0.00,OVC,,0.00,WeatherDisplay:10.37,2013-01-05 08:56:00,
2013-01-05 01:01:00,41.0,35.9,30.15,SW,229,0.0,0.0,82,0.00,OVC,,0.00,WeatherDisplay:10.37,2013-01-05 09:01:00,
2013-01-05 01:11:00,41.2,36.1,30.15,SW,229,0.0,1.0,82,0.00,OVC,,0.00,WeatherDisplay:10.37,2013-01-05 09:11:00,
2013-01-05 01:16:00,41.1,36.3,30.15,SW,218,0.0,1.0,83,0.00,OVC,,0.00,WeatherDisplay:10.37,2013-01-05 09:16:00,
2013-01-05 01:21:00,40.8,36.3,30.15,SSW,201,0.0,1.0,84,0.00,OVC,,0.00,WeatherDisplay:10.37,2013-01-05 09:21:00,
2013-01-05 01:26:00,40.6,36.1,30.15,SSW,197,0.0,0.0,84,0.00,OVC,,0.00,WeatherDisplay:10.37,2013-01-05 09:26:00,
2013-01-05 01:31:00,40.4,36.3,30.15,SSW,197,0.0,0.0,85,0.00,OVC,,0.00,WeatherDisplay:10.37,2013-01-05 09:31:00,
2013-01-05 01:36:00,40.3,36.1,30.16,SSW,197,0.0,1.0,85,0.00,OVC,,0.00,WeatherDisplay:10.37,2013-01-05 09:36:00,
2013-01-05 01:41:00,40.2,36.3,30.16,SSW,197,0.0,0.0,86,0.00,OVC,,0.00,WeatherDisplay:10.37,2013-01-05 09:41:00,
2013-01-05 01:46:00,40.1,36.5,30.16,SSW,197,0.0,1.0,87,0.00,OVC,,0.00,WeatherDisplay:10.37,2013-01-05 09:46:00,
2013-01-05 01:51:00,40.0,36.7,30.16,SSW,199,0.0,0.0,88,0.00,OVC,,0.00,WeatherDisplay:10.37,2013-01-05 09:51:00,
2013-01-05 01:56:00,40.0,37.0,30.16,SSW,213,0.0,1.0,89,0.00,OVC,,0.00,WeatherDisplay:10.37,2013-01-05 09:56:00,
2013-01-05 02:01:00,39.9,36.9,30.17,SW,231,0.0,1.0,89,0.00,OVC,,0.00,WeatherDisplay:10.37,2013-01-05 10:01:00,
2013-01-05 02:11:00,39.6,36.9,30.17,SW,233,0.0,1.0,90,0.00,OVC,,0.00,WeatherDisplay:10.37,2013-01-05 10:11:00,
2013-01-05 02:16:00,39.3,36.9,30.17,SW,232,0.0,1.0,91,0.00,BKN,,0.00,WeatherDisplay:10.37,2013-01-05 10:16:00,
2013-01-05 02:21:00,39.3,36.9,30.17,SW,232,0.0,0.0,91,0.00,BKN,,0.00,WeatherDisplay:10.37,2013-01-05 10:21:00,
2013-01-05 02:26:00,39.2,36.8,30.17,SW,232,0.0,0.0,91,0.00,BKN,,0.00,WeatherDisplay:10.37,2013-01-05 10:26:00,
2013-01-05 02:31:00,39.2,37.1,30.17,SW,232,0.0,0.0,92,0.00,BKN,,0.00,WeatherDisplay:10.37,2013-01-05 10:31:00,
2013-01-05 02:36:00,39.1,37.0,30.17,SW,232,0.0,0.0,92,0.00,BKN,,0.00,WeatherDisplay:10.37,2013-01-05 10:36:00,
2013-01-05 02:41:00,39.0,36.9,30.17,SW,232,0.0,0.0,92,0.00,BKN,,0.00,WeatherDisplay:10.37,2013-01-05 10:41:00,
2013-01-05 02:46:00,38.9,36.8,30.17,SW,232,0.0,1.0,92,0.00,BKN,,0.00,WeatherDisplay:10.37,2013-01-05 10:46:00,
2013-01-05 02:51:00,38.9,37.0,30.17,SW,232,0.0,1.0,93,0.00,BKN,,0.00,WeatherDisplay:10.37,2013-01-05 10:51:00,
2013-01-05 02:56:00,38.9,37.0,30.17,SW,232,0.0,0.0,93,0.00,BKN,,0.00,WeatherDisplay:10.37,2013-01-05 10:56:00,
2013-01-05 03:01:00,38.8,36.9,30.17,SW,232,0.0,0.0,93,0.00,OVC,,0.00,WeatherDisplay:10.37,2013-01-05 11:01:00,
2013-01-05 03:11:00,38.6,36.7,30.17,SW,232,0.0,0.0,93,0.00,OVC,,0.00,WeatherDisplay:10.37,2013-01-05 11:11:00,
2013-01-05 03:16:00,38.7,37.1,30.17,SW,232,0.0,1.0,94,0.00,OVC,,0.00,WeatherDisplay:10.37,2013-01-05 11:16:00,
2013-01-05 03:21:00,38.8,36.9,30.18,SW,232,0.0,0.0,93,0.00,OVC,,0.00,WeatherDisplay:10.37,2013-01-05 11:21:00,
2013-01-05 03:26:00,38.8,36.9,30.18,SW,232,0.0,0.0,93,0.00,OVC,,0.00,WeatherDisplay:10.37,2013-01-05 11:26:00,
2013-01-05 03:31:00,38.8,36.9,30.18,SW,232,0.0,0.0,93,0.00,OVC,,0.00,WeatherDisplay:10.37,2013-01-05 11:31:00,
2013-01-05 03:36:00,38.8,36.9,30.18,SW,232,0.0,1.0,93,0.00,OVC,,0.00,WeatherDisplay:10.37,2013-01-05 11:36:00,
2013-01-05 03:41:00,38.7,36.9,30.18,SW,232,0.0,0.0,93,0.00,OVC,,0.00,WeatherDisplay:10.37,2013-01-05 11:41:00,
2013-01-05 03:46:00,38.6,36.8,30.18,SW,232,0.0,0.0,93,0.00,OVC,,0.00,WeatherDisplay:10.37,2013-01-05 11:46:00,
2013-01-05 03:51:00,38.5,36.7,30.18,SW,233,0.0,0.0,93,0.00,OVC,,0.00,WeatherDisplay:10.37,2013-01-05 11:51:00,
2013-01-05 03:56:00,38.4,36.8,30.18,SW,232,0.0,0.0,94,0.00,OVC,,0.00,WeatherDisplay:10.37,2013-01-05 11:56:00,
2013-01-05 04:01:00,38.3,36.7,30.17,SW,232,0.0,0.0,94,0.00,OVC,,0.00,WeatherDisplay:10.37,2013-01-05 12:01:00,
2013-01-05 04:11:00,38.5,36.9,30.17,SW,232,0.0,0.0,94,0.00,OVC,,0.00,WeatherDisplay:10.37,2013-01-05 12:11:00,
2013-01-05 04:16:00,38.6,37.0,30.17,SW,232,0.0,0.0,94,0.00,BKN,,0.00,WeatherDisplay:10.37,2013-01-05 12:16:00,
2013-01-05 04:21:00,38.5,36.9,30.17,SW,232,0.0,0.0,94,0.00,BKN,,0.00,WeatherDisplay:10.37,2013-01-05 12:21:00,
2013-01-05 04:26:00,38.5,36.9,30.17,SW,232,0.0,1.0,94,0.00,BKN,,0.00,WeatherDisplay:10.37,2013-01-05 12:26:00,
2013-01-05 04:31:00,38.4,36.8,30.17,SW,232,0.0,0.0,94,0.00,BKN,,0.00,WeatherDisplay:10.37,2013-01-05 12:31:00,
2013-01-05 04:36:00,38.4,36.8,30.16,SW,232,0.0,0.0,94,0.00,BKN,,0.00,WeatherDisplay:10.37,2013-01-05 12:36:00,
2013-01-05 04:41:00,38.3,36.7,30.17,SW,234,0.0,1.0,94,0.00,BKN,,0.00,WeatherDisplay:10.37,2013-01-05 12:41:00,
2013-01-05 04:46:00,38.5,36.9,30.17,WSW,237,1.0,2.0,94,0.00,BKN,,0.00,WeatherDisplay:10.37,2013-01-05 12:46:00,
2013-01-05 04:51:00,38.5,37.0,30.16,WSW,237,0.0,1.0,94,0.00,BKN,,0.00,WeatherDisplay:10.37,2013-01-05 12:51:00,
2013-01-05 04:56:00,38.5,37.0,30.16,SW,236,0.0,0.0,94,0.00,BKN,,0.00,WeatherDisplay:10.37,2013-01-05 12:56:00,
2013-01-05 05:01:00,38.5,36.9,30.16,SW,236,0.0,0.0,94,0.00,OVC,,0.00,WeatherDisplay:10.37,2013-01-05 13:01:00,
2013-01-05 05:11:00,38.6,37.0,30.16,SW,236,0.0,1.0,94,0.00,OVC,,0.00,WeatherDisplay:10.37,2013-01-05 13:11:00,
2013-01-05 05:16:00,38.7,37.1,30.17,SW,235,0.0,2.0,94,0.00,OVC,,0.00,WeatherDisplay:10.37,2013-01-05 13:16:00,
2013-01-05 05:21:00,38.9,37.1,30.17,SW,233,0.0,2.0,93,0.00,OVC,,0.00,WeatherDisplay:10.37,2013-01-05 13:21:00,
2013-01-05 05:26:00,39.1,37.0,30.17,SW,225,0.0,1.0,92,0.00,OVC,,0.00,WeatherDisplay:10.37,2013-01-05 13:26:00,
2013-01-05 05:31:00,39.1,37.0,30.17,SW,222,0.0,1.0,92,0.00,OVC,,0.00,WeatherDisplay:10.37,2013-01-05 13:31:00,
2013-01-05 05:36:00,39.1,37.0,30.17,SW,222,0.0,0.0,92,0.00,OVC,,0.00,WeatherDisplay:10.37,2013-01-05 13:36:00,
2013-01-05 05:41:00,39.1,37.0,30.17,SW,222,0.0,1.0,92,0.00,OVC,,0.00,WeatherDisplay:10.37,2013-01-05 13:41:00,
2013-01-05 05:46:00,39.1,37.2,30.17,SW,217,0.0,1.0,93,0.00,OVC,,0.00,WeatherDisplay:10.37,2013-01-05 13:46:00,
2013-01-05 05:51:00,39.0,37.2,30.17,South,189,0.0,0.0,93,0.00,OVC,,0.00,WeatherDisplay:10.37,2013-01-05 13:51:00,
2013-01-05 05:56:00,38.9,37.0,30.17,South,177,0.0,0.0,93,0.00,OVC,,0.00,WeatherDisplay:10.37,2013-01-05 13:56:00,
2013-01-05 06:01:00,38.8,36.9,30.17,South,177,0.0,0.0,93,0.00,OVC,,0.00,WeatherDisplay:10.37,2013-01-05 14:01:00,
2013-01-05 06:11:00,38.9,37.3,30.17,South,177,0.0,0.0,94,0.00,OVC,,0.00,WeatherDisplay:10.37,2013-01-05 14:11:00,
2013-01-05 06:16:00,39.0,37.4,30.17,South,177,0.0,0.0,94,0.00,OVC,,0.00,WeatherDisplay:10.37,2013-01-05 14:16:00,
2013-01-05 06:21:00,39.1,37.5,30.17,South,177,0.0,0.0,94,0.00,OVC,,0.00,WeatherDisplay:10.37,2013-01-05 14:21:00,
2013-01-05 06:26:00,39.1,37.5,30.17,South,177,0.0,0.0,94,0.00,OVC,,0.00,WeatherDisplay:10.37,2013-01-05 14:26:00,
2013-01-05 06:31:00,39.0,37.4,30.17,South,177,0.0,0.0,94,0.00,OVC,,0.00,WeatherDisplay:10.37,2013-01-05 14:31:00,
2013-01-05 06:36:00,38.9,37.3,30.17,South,177,0.0,0.0,94,0.00,OVC,,0.00,WeatherDisplay:10.37,2013-01-05 14:36:00,
2013-01-05 06:41:00,38.9,37.3,30.17,South,177,0.0,0.0,94,0.00,OVC,,0.00,WeatherDisplay:10.37,2013-01-05 14:41:00,
2013-01-05 06:46:00,38.8,37.2,30.17,South,178,0.0,0.0,94,0.00,OVC,,0.00,WeatherDisplay:10.37,2013-01-05 14:46:00,
2013-01-05 06:51:00,38.7,37.1,30.17,South,177,0.0,0.0,94,0.00,OVC,,0.00,WeatherDisplay:10.37,2013-01-05 14:51:00,
2013-01-05 06:56:00,38.8,37.2,30.17,South,177,0.0,1.0,94,0.00,OVC,,0.00,WeatherDisplay:10.37,2013-01-05 14:56:00,
2013-01-05 07:01:00,38.8,37.2,30.18,South,177,0.0,0.0,94,0.00,OVC,,0.00,WeatherDisplay:10.37,2013-01-05 15:01:00,
2013-01-05 07:11:00,38.6,37.0,30.18,South,177,0.0,0.0,94,0.00,OVC,,0.00,WeatherDisplay:10.37,2013-01-05 15:11:00,
2013-01-05 07:16:00,38.6,37.0,30.18,South,177,0.0,0.0,94,0.00,OVC,,0.00,WeatherDisplay:10.37,2013-01-05 15:16:00,
2013-01-05 07:26:00,38.6,37.0,30.18,South,177,0.0,0.0,94,0.00,OVC,,0.00,WeatherDisplay:10.37,2013-01-05 15:26:00,
2013-01-05 07:31:00,38.7,37.1,30.18,South,177,0.0,1.0,94,0.00,OVC,,0.00,WeatherDisplay:10.37,2013-01-05 15:31:00,
2013-01-05 07:36:00,38.6,37.3,30.18,South,169,0.0,0.0,95,0.00,OVC,,0.00,WeatherDisplay:10.37,2013-01-05 15:36:00,
2013-01-05 07:41:00,38.6,37.3,30.18,SSE,163,0.0,0.0,95,0.00,OVC,,0.00,WeatherDisplay:10.37,2013-01-05 15:41:00,
2013-01-05 07:46:00,38.6,37.3,30.18,SSE,163,0.0,0.0,95,0.00,OVC,,0.00,WeatherDisplay:10.37,2013-01-05 15:46:00,
2013-01-05 07:51:00,38.6,37.3,30.18,SSE,163,0.0,0.0,95,0.00,OVC,,0.00,WeatherDisplay:10.37,2013-01-05 15:51:00,
2013-01-05 07:56:00,38.7,37.4,30.18,SSE,163,0.0,1.0,95,0.00,OVC,,0.00,WeatherDisplay:10.37,2013-01-05 15:56:00,
2013-01-05 08:01:00,38.8,37.5,30.18,SSE,163,0.0,0.0,95,0.00,OVC,,0.00,WeatherDisplay:10.37,2013-01-05 16:01:00,
2013-01-05 08:11:00,38.7,37.4,30.19,SSE,163,0.0,0.0,95,0.00,OVC,,0.00,WeatherDisplay:10.37,2013-01-05 16:11:00,
2013-01-05 08:16:00,38.6,37.0,30.19,SSE,163,0.0,1.0,94,0.00,OVC,,0.00,WeatherDisplay:10.37,2013-01-05 16:16:00,
2013-01-05 08:21:00,38.6,37.0,30.19,SSE,163,0.0,1.0,94,0.00,OVC,,0.00,WeatherDisplay:10.37,2013-01-05 16:21:00,
2013-01-05 08:26:00,38.6,37.3,30.18,SSE,150,0.0,2.0,95,0.00,OVC,,0.00,WeatherDisplay:10.37,2013-01-05 16:26:00,
2013-01-05 08:31:00,38.6,37.0,30.18,East,97,0.0,1.0,94,0.00,OVC,,0.00,WeatherDisplay:10.37,2013-01-05 16:31:00,
2013-01-05 08:36:00,38.6,37.0,30.18,ESE,120,1.0,4.0,94,0.00,OVC,,0.00,WeatherDisplay:10.37,2013-01-05 16:36:00,
2013-01-05 08:41:00,38.7,36.9,30.18,ESE,115,0.0,4.0,93,0.00,OVC,,0.00,WeatherDisplay:10.37,2013-01-05 16:41:00,
2013-01-05 08:46:00,38.8,36.9,30.18,SE,135,0.0,1.0,93,0.00,OVC,,0.00,WeatherDisplay:10.37,2013-01-05 16:46:00,
2013-01-05 08:51:00,39.0,37.2,30.19,West,261,1.0,2.0,93,0.00,OVC,,0.00,WeatherDisplay:10.37,2013-01-05 16:51:00,
2013-01-05 08:56:00,39.3,36.9,30.19,NNW,328,1.0,2.0,91,0.00,OVC,,0.00,WeatherDisplay:10.37,2013-01-05 16:56:00,
2013-01-05 09:01:00,39.5,37.1,30.19,North,355,0.0,1.0,91,0.00,OVC,,0.00,WeatherDisplay:10.37,2013-01-05 17:01:00,
2013-01-05 09:11:00,39.5,37.4,30.19,East,80,0.0,1.0,92,0.00,OVC,,0.00,WeatherDisplay:10.37,2013-01-05 17:11:00,
2013-01-05 09:21:00,39.5,37.1,30.19,East,91,0.0,2.0,91,0.00,OVC,,0.00,WeatherDisplay:10.37,2013-01-05 17:21:00,
2013-01-05 09:26:00,39.9,37.2,30.20,WSW,241,2.0,3.0,90,0.00,OVC,,0.00,WeatherDisplay:10.37,2013-01-05 17:26:00,
2013-01-05 09:31:00,40.3,37.3,30.20,WSW,239,1.0,3.0,89,0.00,OVC,,0.00,WeatherDisplay:10.37,2013-01-05 17:31:00,
2013-01-05 09:36:00,40.5,37.5,30.20,WSW,237,0.0,1.0,89,0.00,OVC,,0.00,WeatherDisplay:10.37,2013-01-05 17:36:00,
2013-01-05 09:41:00,40.6,37.3,30.20,SW,236,0.0,1.0,88,0.00,OVC,,0.00,WeatherDisplay:10.37,2013-01-05 17:41:00,
2013-01-05 09:46:00,40.6,37.3,30.20,WSW,238,0.0,1.0,88,0.00,OVC,,0.00,WeatherDisplay:10.37,2013-01-05 17:46:00,
2013-01-05 09:51:00,40.6,37.6,30.21,WSW,238,0.0,0.0,89,0.00,OVC,,0.00,WeatherDisplay:10.37,2013-01-05 17:51:00,
2013-01-05 09:56:00,40.5,37.8,30.20,SW,236,0.0,1.0,90,0.00,OVC,,0.00,WeatherDisplay:10.37,2013-01-05 17:56:00,
2013-01-05 10:01:00,40.5,38.1,30.20,SW,232,0.0,1.0,91,0.00,-RA,,0.00,WeatherDisplay:10.37,2013-01-05 18:01:00,
2013-01-05 10:11:00,40.6,38.2,30.21,SW,229,0.0,0.0,91,0.00,-RA,,0.00,WeatherDisplay:10.37,2013-01-05 18:11:00,
2013-01-05 10:16:00,40.7,38.3,30.21,SW,229,0.0,1.0,91,0.00,-RA,,0.00,WeatherDisplay:10.37,2013-01-05 18:16:00,
2013-01-05 10:21:00,40.8,38.6,30.21,SW,229,0.0,1.0,92,0.00,-RA,,0.00,WeatherDisplay:10.37,2013-01-05 18:21:00,
2013-01-05 10:26:00,40.8,38.7,30.21,SW,229,0.0,0.0,92,0.00,-RA,,0.00,WeatherDisplay:10.37,2013-01-05 18:26:00,
2013-01-05 10:31:00,41.0,38.9,30.21,SW,229,0.0,1.0,92,0.00,-RA,,0.00,WeatherDisplay:10.37,2013-01-05 18:31:00,
2013-01-05 10:36:00,41.0,38.6,30.21,SW,229,0.0,0.0,91,0.00,-RA,,0.00,WeatherDisplay:10.37,2013-01-05 18:36:00,
2013-01-05 10:41:00,41.1,38.7,30.20,SW,229,0.0,0.0,91,0.00,-RA,,0.00,WeatherDisplay:10.37,2013-01-05 18:41:00,
2013-01-05 10:46:00,41.3,38.9,30.20,SW,234,0.0,1.0,91,0.00,-RA,,0.00,WeatherDisplay:10.37,2013-01-05 18:46:00,
2013-01-05 10:51:00,41.3,37.7,30.20,South,184,0.0,1.0,87,0.00,-RA,,0.00,WeatherDisplay:10.37,2013-01-05 18:51:00,
2013-01-05 10:56:00,41.5,37.6,30.20,SE,134,1.0,1.0,86,0.00,-RA,,0.00,WeatherDisplay:10.37,2013-01-05 18:56:00,
2013-01-05 11:01:00,41.6,37.1,30.20,SE,137,0.0,2.0,84,0.00,-RA,,0.00,WeatherDisplay:10.37,2013-01-05 19:01:00,
2013-01-05 11:11:00,41.7,37.2,30.19,South,172,0.0,1.0,84,0.00,-RA,,0.00,WeatherDisplay:10.37,2013-01-05 19:11:00,
2013-01-05 11:16:00,41.7,37.2,30.19,South,174,0.0,1.0,84,0.00,OVC,,0.00,WeatherDisplay:10.37,2013-01-05 19:16:00,
2013-01-05 11:21:00,41.7,37.2,30.18,SE,134,0.0,1.0,84,0.00,OVC,,0.00,WeatherDisplay:10.37,2013-01-05 19:21:00,
2013-01-05 11:26:00,41.8,37.0,30.18,ESE,117,0.0,3.0,83,0.00,OVC,,0.00,WeatherDisplay:10.37,2013-01-05 19:26:00,
2013-01-05 11:31:00,42.0,37.2,30.18,ESE,123,1.0,4.0,83,0.00,OVC,,0.00,WeatherDisplay:10.37,2013-01-05 19:31:00,
2013-01-05 11:36:00,42.0,36.9,30.18,SE,135,0.0,5.0,82,0.00,OVC,,0.00,WeatherDisplay:10.37,2013-01-05 19:36:00,
2013-01-05 11:41:00,42.1,37.0,30.18,SSE,147,1.0,4.0,82,0.00,OVC,,0.00,WeatherDisplay:10.37,2013-01-05 19:41:00,
2013-01-05 11:46:00,42.3,37.8,30.18,SSE,152,0.0,2.0,84,0.00,OVC,,0.00,WeatherDisplay:10.37,2013-01-05 19:46:00,
2013-01-05 11:51:00,42.3,37.5,30.18,NE,38,0.0,2.0,83,0.00,OVC,,0.00,WeatherDisplay:10.37,2013-01-05 19:51:00,
2013-01-05 11:56:00,42.4,37.6,30.18,East,98,1.0,3.0,83,0.00,OVC,,0.00,WeatherDisplay:10.37,2013-01-05 19:56:00,
2013-01-05 12:01:00,42.4,37.6,30.18,SSW,193,0.0,3.0,83,0.00,BKN,,0.00,WeatherDisplay:10.37,2013-01-05 20:01:00,
2013-01-05 12:11:00,42.7,37.9,30.18,NE,49,0.0,1.0,83,0.00,BKN,,0.00,WeatherDisplay:10.37,2013-01-05 20:11:00,
2013-01-05 12:16:00,42.8,38.3,30.18,ESE,122,0.0,2.0,84,0.00,BKN,,0.00,WeatherDisplay:10.37,2013-01-05 20:16:00,
2013-01-05 12:21:00,43.0,38.5,30.18,SE,144,0.0,1.0,84,0.00,BKN,,0.00,WeatherDisplay:10.37,2013-01-05 20:21:00,
2013-01-05 12:26:00,43.1,38.6,30.18,SSE,159,1.0,2.0,84,0.00,BKN,,0.00,WeatherDisplay:10.37,2013-01-05 20:26:00,
2013-01-05 12:31:00,43.2,38.7,30.17,SE,132,1.0,4.0,84,0.00,BKN,,0.00,WeatherDisplay:10.37,2013-01-05 20:31:00,
2013-01-05 12:36:00,43.3,38.8,30.18,SSE,160,1.0,4.0,84,0.00,BKN,,0.00,WeatherDisplay:10.37,2013-01-05 20:36:00,
2013-01-05 12:41:00,43.4,38.9,30.17,SSE,162,1.0,2.0,84,0.00,BKN,,0.00,WeatherDisplay:10.37,2013-01-05 20:41:00,
2013-01-05 12:46:00,43.5,39.0,30.17,SE,145,0.0,1.0,84,0.00,BKN,,0.00,WeatherDisplay:10.37,2013-01-05 20:46:00,
2013-01-05 12:51:00,43.6,39.1,30.17,NNW,330,0.0,1.0,84,0.00,BKN,,0.00,WeatherDisplay:10.37,2013-01-05 20:51:00,
2013-01-05 12:56:00,43.6,39.1,30.17,NE,44,0.0,2.0,84,0.00,BKN,,0.00,WeatherDisplay:10.37,2013-01-05 20:56:00,
2013-01-05 13:01:00,43.6,38.8,30.17,SW,236,0.0,1.0,83,0.00,OVC,,0.00,WeatherDisplay:10.37,2013-01-05 21:01:00,
2013-01-05 13:11:00,43.6,38.8,30.17,NW,326,0.0,0.0,83,0.00,OVC,,0.00,WeatherDisplay:10.37,2013-01-05 21:11:00,
2013-01-05 13:16:00,43.6,38.8,30.16,NNW,327,0.0,1.0,83,0.00,OVC,,0.00,WeatherDisplay:10.37,2013-01-05 21:16:00,
2013-01-05 13:21:00,43.6,38.8,30.16,NNE,12,0.0,2.0,83,0.00,OVC,,0.00,WeatherDisplay:10.37,2013-01-05 21:21:00,
2013-01-05 13:26:00,43.6,39.1,30.16,ESE,114,0.0,1.0,84,0.00,OVC,,0.00,WeatherDisplay:10.37,2013-01-05 21:26:00,
2013-01-05 13:31:00,43.5,39.0,30.16,ESE,120,0.0,2.0,84,0.00,OVC,,0.00,WeatherDisplay:10.37,2013-01-05 21:31:00,
2013-01-05 13:36:00,43.4,38.6,30.15,ESE,112,1.0,2.0,83,0.00,OVC,,0.00,WeatherDisplay:10.37,2013-01-05 21:36:00,
2013-01-05 13:41:00,43.4,38.6,30.15,SE,132,0.0,1.0,83,0.00,OVC,,0.00,WeatherDisplay:10.37,2013-01-05 21:41:00,
2013-01-05 13:46:00,43.4,38.6,30.15,SSE,160,1.0,3.0,83,0.00,OVC,,0.00,WeatherDisplay:10.37,2013-01-05 21:46:00,
2013-01-05 13:51:00,43.4,38.0,30.15,ESE,107,1.0,5.0,81,0.00,OVC,,0.00,WeatherDisplay:10.37,2013-01-05 21:51:00,
2013-01-05 13:56:00,43.4,38.3,30.14,SE,143,1.0,5.0,82,0.00,OVC,,0.00,WeatherDisplay:10.37,2013-01-05 21:56:00,
2013-01-05 14:01:00,43.4,38.3,30.14,SE,131,0.0,3.0,82,0.00,BKN,,0.00,WeatherDisplay:10.37,2013-01-05 22:01:00,
2013-01-05 14:11:00,43.4,38.0,30.14,NE,53,0.0,3.0,81,0.00,BKN,,0.00,WeatherDisplay:10.37,2013-01-05 22:11:00,
2013-01-05 14:16:00,43.4,37.6,30.13,ESE,114,0.0,4.0,80,0.00,BKN,,0.00,WeatherDisplay:10.37,2013-01-05 22:16:00,
2013-01-05 14:21:00,43.3,37.9,30.13,SE,142,0.0,4.0,81,0.00,BKN,,0.00,WeatherDisplay:10.37,2013-01-05 22:21:00,
2013-01-05 14:26:00,43.3,37.5,30.13,SSE,152,0.0,2.0,80,0.00,BKN,,0.00,WeatherDisplay:10.37,2013-01-05 22:26:00,
2013-01-05 14:31:00,43.3,37.5,30.14,SSE,157,0.0,2.0,80,0.00,BKN,,0.00,WeatherDisplay:10.37,2013-01-05 22:31:00,
2013-01-05 14:36:00,43.3,37.5,30.13,ESE,107,0.0,3.0,80,0.00,BKN,,0.00,WeatherDisplay:10.37,2013-01-05 22:36:00,
2013-01-05 14:41:00,43.3,37.2,30.13,ENE,73,1.0,4.0,79,0.00,BKN,,0.00,WeatherDisplay:10.37,2013-01-05 22:41:00,
2013-01-05 14:46:00,43.3,36.9,30.13,ESE,116,1.0,3.0,78,0.00,BKN,,0.00,WeatherDisplay:10.37,2013-01-05 22:46:00,
2013-01-05 14:51:00,43.3,36.6,30.14,WSW,240,1.0,4.0,77,0.00,BKN,,0.00,WeatherDisplay:10.37,2013-01-05 22:51:00,
2013-01-05 14:56:00,43.4,36.7,30.15,South,169,0.0,2.0,77,0.00,BKN,,0.00,WeatherDisplay:10.37,2013-01-05 22:56:00,
2013-01-05 15:01:00,43.4,37.0,30.14,SE,145,0.0,1.0,78,0.00,OVC,,0.00,WeatherDisplay:10.37,2013-01-05 23:01:00,
2013-01-05 15:11:00,43.3,36.6,30.15,South,172,0.0,1.0,77,0.00,OVC,,0.00,WeatherDisplay:10.37,2013-01-05 23:11:00,
2013-01-05 15:16:00,43.3,36.9,30.15,SSW,198,0.0,0.0,78,0.00,OVC,,0.00,WeatherDisplay:10.37,2013-01-05 23:16:00,
2013-01-05 15:21:00,43.2,37.4,30.14,SSW,204,0.0,0.0,80,0.00,OVC,,0.00,WeatherDisplay:10.37,2013-01-05 23:21:00,
2013-01-05 15:26:00,43.1,37.3,30.14,SSW,204,0.0,0.0,80,0.00,OVC,,0.00,WeatherDisplay:10.37,2013-01-05 23:26:00,
2013-01-05 15:31:00,43.0,36.9,30.14,SSW,204,0.0,0.0,79,0.00,OVC,,0.00,WeatherDisplay:10.37,2013-01-05 23:31:00,
2013-01-05 15:36:00,43.0,36.9,30.14,SSW,203,0.0,1.0,79,0.00,OVC,,0.00,WeatherDisplay:10.37,2013-01-05 23:36:00,
2013-01-05 15:41:00,42.9,36.5,30.14,SSW,201,0.0,0.0,78,0.00,OVC,,0.00,WeatherDisplay:10.37,2013-01-05 23:41:00,
2013-01-05 15:46:00,42.8,36.7,30.14,SSW,201,0.0,0.0,79,0.00,OVC,,0.00,WeatherDisplay:10.37,2013-01-05 23:46:00,
2013-01-05 15:51:00,42.7,36.6,30.14,SSW,201,0.0,0.0,79,0.00,OVC,,0.00,WeatherDisplay:10.37,2013-01-05 23:51:00,
2013-01-05 15:56:00,42.7,37.0,30.14,SSW,201,0.0,1.0,80,0.00,OVC,,0.00,WeatherDisplay:10.37,2013-01-05 23:56:00,
2013-01-05 16:01:00,42.5,37.4,30.13,SSW,201,0.0,0.0,82,0.00,OVC,,0.00,WeatherDisplay:10.37,2013-01-06 00:01:00,
2013-01-05 16:11:00,42.8,36.7,30.14,SW,224,0.0,2.0,79,0.00,OVC,,0.00,WeatherDisplay:10.37,2013-01-06 00:11:00,
2013-01-05 16:16:00,42.9,37.5,30.13,ESE,112,0.0,2.0,81,0.00,OVC,,0.00,WeatherDisplay:10.37,2013-01-06 00:16:00,
2013-01-05 16:21:00,42.6,37.5,30.12,East,88,0.0,0.0,82,0.00,OVC,,0.00,WeatherDisplay:10.37,2013-01-06 00:21:00,
2013-01-05 16:26:00,42.3,36.6,30.13,East,85,0.0,0.0,80,0.00,OVC,,0.00,WeatherDisplay:10.37,2013-01-06 00:26:00,
2013-01-05 16:31:00,42.4,37.0,30.13,East,82,0.0,1.0,81,0.00,OVC,,0.00,WeatherDisplay:10.37,2013-01-06 00:31:00,
2013-01-05 16:36:00,42.4,37.0,30.13,WSW,240,0.0,1.0,81,0.00,OVC,,0.00,WeatherDisplay:10.37,2013-01-06 00:36:00,
2013-01-05 16:41:00,42.4,37.3,30.13,WSW,239,0.0,1.0,82,0.00,OVC,,0.00,WeatherDisplay:10.37,2013-01-06 00:41:00,
2013-01-05 16:46:00,42.4,37.3,30.13,SW,227,0.0,0.0,82,0.00,OVC,,0.00,WeatherDisplay:10.37,2013-01-06 00:46:00,
2013-01-05 16:51:00,42.3,37.5,30.12,SW,215,0.0,1.0,83,0.00,OVC,,0.00,WeatherDisplay:10.37,2013-01-06 00:51:00,
2013-01-05 16:56:00,41.8,37.3,30.12,SSW,197,0.0,1.0,84,0.00,OVC,,0.00,WeatherDisplay:10.37,2013-01-06 00:56:00,
2013-01-05 17:01:00,41.6,37.1,30.12,South,188,0.0,0.0,84,0.00,OVC,,0.00,WeatherDisplay:10.37,2013-01-06 01:01:00,
2013-01-05 17:11:00,41.4,37.2,30.12,South,188,0.0,0.0,85,0.00,OVC,,0.00,WeatherDisplay:10.37,2013-01-06 01:11:00,
2013-01-05 17:16:00,41.4,37.2,30.11,South,188,0.0,1.0,85,0.00,BKN,,0.00,WeatherDisplay:10.37,2013-01-06 01:16:00,
2013-01-05 17:21:00,41.2,37.3,30.11,South,188,0.0,1.0,86,0.00,BKN,,0.00,WeatherDisplay:10.37,2013-01-06 01:21:00,
2013-01-05 17:26:00,40.9,37.3,30.11,South,188,0.0,0.0,87,0.00,BKN,,0.00,WeatherDisplay:10.37,2013-01-06 01:26:00,
2013-01-05 17:31:00,40.8,37.2,30.12,South,188,0.0,0.0,87,0.00,BKN,,0.00,WeatherDisplay:10.37,2013-01-06 01:31:00,
2013-01-05 17:36:00,40.6,37.0,30.11,South,188,0.0,0.0,87,0.00,BKN,,0.00,WeatherDisplay:10.37,2013-01-06 01:36:00,
2013-01-05 17:41:00,40.3,36.8,30.12,South,188,0.0,0.0,87,0.00,BKN,,0.00,WeatherDisplay:10.37,2013-01-06 01:41:00,
2013-01-05 17:46:00,40.0,36.7,30.12,South,188,0.0,0.0,88,0.00,BKN,,0.00,WeatherDisplay:10.37,2013-01-06 01:46:00,
2013-01-05 17:51:00,39.9,36.9,30.12,South,188,0.0,0.0,89,0.00,BKN,,0.00,WeatherDisplay:10.37,2013-01-06 01:51:00,
2013-01-05 17:56:00,39.9,36.9,30.12,SSW,194,0.0,1.0,89,0.00,BKN,,0.00,WeatherDisplay:10.37,2013-01-06 01:56:00,
2013-01-05 18:01:00,39.8,36.8,30.12,SW,224,0.0,0.0,89,0.00,BKN,,0.00,WeatherDisplay:10.37,2013-01-06 02:01:00,
2013-01-05 18:11:00,39.6,36.9,30.12,SW,231,0.0,0.0,90,0.00,BKN,,0.00,WeatherDisplay:10.37,2013-01-06 02:11:00,
2013-01-05 18:16:00,39.6,36.9,30.12,SW,231,0.0,0.0,90,0.00,SCT,,0.00,WeatherDisplay:10.37,2013-01-06 02:16:00,
2013-01-05 18:21:00,39.5,36.8,30.12,SW,231,0.0,0.0,90,0.00,SCT,,0.00,WeatherDisplay:10.37,2013-01-06 02:21:00,
2013-01-05 18:26:00,39.4,37.0,30.12,SW,231,0.0,0.0,91,0.00,SCT,,0.00,WeatherDisplay:10.37,2013-01-06 02:26:00,
2013-01-05 18:31:00,39.3,36.9,30.12,SW,231,0.0,0.0,91,0.00,SCT,,0.00,WeatherDisplay:10.37,2013-01-06 02:31:00,
2013-01-05 18:36:00,39.2,36.8,30.12,SW,231,0.0,0.0,91,0.00,SCT,,0.00,WeatherDisplay:10.37,2013-01-06 02:36:00,
2013-01-05 18:41:00,39.2,36.8,30.12,SSW,209,0.0,0.0,91,0.00,SCT,,0.00,WeatherDisplay:10.37,2013-01-06 02:41:00,
2013-01-05 18:46:00,39.1,37.0,30.12,South,181,0.0,0.0,92,0.00,SCT,,0.00,WeatherDisplay:10.37,2013-01-06 02:46:00,
2013-01-05 18:51:00,38.9,36.8,30.12,South,176,0.0,0.0,92,0.00,SCT,,0.00,WeatherDisplay:10.37,2013-01-06 02:51:00,
2013-01-05 18:56:00,38.8,36.7,30.12,South,176,0.0,0.0,92,0.00,SCT,,0.00,WeatherDisplay:10.37,2013-01-06 02:56:00,
2013-01-05 19:01:00,38.8,36.7,30.12,South,176,0.0,0.0,92,0.00,OVC,,0.00,WeatherDisplay:10.37,2013-01-06 03:01:00,
2013-01-05 19:11:00,39.0,36.9,30.12,South,176,0.0,1.0,92,0.00,OVC,,0.00,WeatherDisplay:10.37,2013-01-06 03:11:00,
2013-01-05 19:16:00,38.9,36.8,30.12,South,176,0.0,0.0,92,0.00,OVC,,0.00,WeatherDisplay:10.37,2013-01-06 03:16:00,
2013-01-05 19:21:00,38.8,36.7,30.13,South,176,0.0,0.0,92,0.00,OVC,,0.00,WeatherDisplay:10.37,2013-01-06 03:21:00,
2013-01-05 19:26:00,38.8,36.7,30.12,SSE,154,1.0,2.0,92,0.00,OVC,,0.00,WeatherDisplay:10.37,2013-01-06 03:26:00,
2013-01-05 19:31:00,38.8,36.7,30.12,East,97,0.0,1.0,92,0.00,OVC,,0.00,WeatherDisplay:10.37,2013-01-06 03:31:00,
2013-01-05 19:36:00,38.9,36.5,30.12,ESE,110,0.0,0.0,91,0.00,OVC,,0.00,WeatherDisplay:10.37,2013-01-06 03:36:00,
2013-01-05 19:41:00,38.9,36.5,30.12,ESE,110,0.0,1.0,91,0.00,OVC,,0.00,WeatherDisplay:10.37,2013-01-06 03:41:00,
2013-01-05 19:46:00,39.0,36.3,30.12,ESE,110,0.0,1.0,90,0.00,OVC,,0.00,WeatherDisplay:10.37,2013-01-06 03:46:00,
2013-01-05 19:51:00,38.9,36.3,30.12,ESE,110,0.0,1.0,90,0.00,OVC,,0.00,WeatherDisplay:10.37,2013-01-06 03:51:00,
2013-01-05 19:56:00,39.0,36.3,30.12,ESE,110,0.0,1.0,90,0.00,OVC,,0.00,WeatherDisplay:10.37,2013-01-06 03:56:00,
2013-01-05 20:01:00,39.0,36.4,30.12,ESE,110,0.0,1.0,90,0.00,OVC,,0.00,WeatherDisplay:10.37,2013-01-06 04:01:00,
2013-01-05 20:11:00,39.6,36.6,30.13,SW,233,0.0,0.0,89,0.00,OVC,,0.00,WeatherDisplay:10.37,2013-01-06 04:11:00,
2013-01-05 20:16:00,39.7,36.7,30.13,SW,233,0.0,0.0,89,0.00,OVC,,0.00,WeatherDisplay:10.37,2013-01-06 04:16:00,
2013-01-05 20:21:00,39.7,36.7,30.12,SW,233,0.0,1.0,89,0.00,OVC,,0.00,WeatherDisplay:10.37,2013-01-06 04:21:00,
2013-01-05 20:26:00,39.6,36.6,30.12,SW,233,0.0,0.0,89,0.00,OVC,,0.00,WeatherDisplay:10.37,2013-01-06 04:26:00,
2013-01-05 20:31:00,39.6,36.6,30.12,SW,233,0.0,0.0,89,0.00,OVC,,0.00,WeatherDisplay:10.37,2013-01-06 04:31:00,
2013-01-05 20:36:00,39.5,36.5,30.12,SW,233,0.0,0.0,89,0.00,OVC,,0.00,WeatherDisplay:10.37,2013-01-06 04:36:00,
2013-01-05 20:41:00,39.5,36.8,30.13,SW,233,0.0,0.0,90,0.00,OVC,,0.00,WeatherDisplay:10.37,2013-01-06 04:41:00,
2013-01-05 20:46:00,39.4,37.0,30.13,SW,233,0.0,1.0,91,0.00,OVC,,0.00,WeatherDisplay:10.37,2013-01-06 04:46:00,
2013-01-05 20:56:00,39.2,37.1,30.13,SW,233,0.0,0.0,92,0.00,RA,,0.01,WeatherDisplay:10.37,2013-01-06 04:56:00,
2013-01-05 21:01:00,39.3,37.2,30.13,SW,235,0.0,1.0,92,0.00,-RA,,0.01,WeatherDisplay:10.37,2013-01-06 05:01:00,
2013-01-05 21:06:00,39.4,37.3,30.13,SW,231,0.0,1.0,92,0.00,-RA,,0.01,WeatherDisplay:10.37,2013-01-06 05:06:00,
2013-01-05 21:16:00,39.5,37.4,30.13,SW,228,0.0,2.0,92,0.00,-RA,,0.01,WeatherDisplay:10.37,2013-01-06 05:16:00,
2013-01-05 21:21:00,39.7,37.2,30.13,WSW,243,0.0,2.0,91,0.00,-RA,,0.01,WeatherDisplay:10.37,2013-01-06 05:21:00,
2013-01-05 21:26:00,39.7,37.0,30.13,South,186,0.0,1.0,90,0.00,-RA,,0.01,WeatherDisplay:10.37,2013-01-06 05:26:00,
2013-01-05 21:31:00,39.7,37.3,30.14,SSW,196,1.0,2.0,91,0.01,-RA,,0.02,WeatherDisplay:10.37,2013-01-06 05:31:00,
2013-01-05 21:36:00,39.7,37.3,30.14,SSW,207,0.0,1.0,91,0.00,-RA,,0.02,WeatherDisplay:10.37,2013-01-06 05:36:00,
2013-01-05 21:41:00,39.7,37.3,30.14,SE,141,0.0,1.0,91,0.00,-RA,,0.02,WeatherDisplay:10.37,2013-01-06 05:41:00,
2013-01-05 21:46:00,39.6,37.5,30.14,SE,146,0.0,1.0,92,0.01,-RA,,0.03,WeatherDisplay:10.37,2013-01-06 05:46:00,
2013-01-05 21:51:00,39.6,37.7,30.14,SSE,159,0.0,0.0,93,0.00,-RA,,0.03,WeatherDisplay:10.37,2013-01-06 05:51:00,
2013-01-05 21:56:00,39.6,38.0,30.14,SSE,160,0.0,0.0,94,0.01,-RA,,0.04,WeatherDisplay:10.37,2013-01-06 05:56:00,
2013-01-05 22:01:00,39.7,38.1,30.14,SE,142,0.0,2.0,94,0.00,-RA,,0.04,WeatherDisplay:10.37,2013-01-06 06:01:00,
2013-01-05 22:11:00,39.9,38.6,30.14,SSE,155,2.0,6.0,95,0.00,-RA,,0.05,WeatherDisplay:10.37,2013-01-06 06:11:00,
2013-01-05 22:21:00,40.0,39.0,30.14,SSE,149,1.0,4.0,96,0.01,-RA,,0.07,WeatherDisplay:10.37,2013-01-06 06:21:00,
2013-01-05 22:26:00,40.0,39.0,30.14,SSE,156,2.0,5.0,96,0.00,-RA,,0.07,WeatherDisplay:10.37,2013-01-06 06:26:00,
2013-01-05 22:31:00,40.0,39.0,30.14,SSE,156,0.0,3.0,96,0.01,-RA,,0.08,WeatherDisplay:10.37,2013-01-06 06:31:00,
2013-01-05 22:36:00,40.0,39.0,30.13,SSE,153,1.0,3.0,96,0.00,-RA,,0.08,WeatherDisplay:10.37,2013-01-06 06:36:00,
2013-01-05 22:41:00,40.0,39.0,30.13,SSE,155,0.0,3.0,96,0.01,-RA,,0.09,WeatherDisplay:10.37,2013-01-06 06:41:00,
2013-01-05 22:46:00,40.0,38.9,30.14,SSE,151,2.0,6.0,96,0.00,-RA,,0.09,WeatherDisplay:10.37,2013-01-06 06:46:00,
2013-01-05 22:51:00,39.9,38.9,30.14,SSE,148,0.0,2.0,96,0.00,-RA,,0.09,WeatherDisplay:10.37,2013-01-06 06:51:00,
2013-01-05 22:56:00,39.9,38.9,30.14,SE,134,1.0,2.0,96,0.00,-RA,,0.09,WeatherDisplay:10.37,2013-01-06 06:56:00,
2013-01-05 23:01:00,39.8,38.8,30.14,SE,131,0.0,2.0,96,0.00,-RA,,0.09,WeatherDisplay:10.37,2013-01-06 07:01:00,
2013-01-05 23:11:00,39.7,38.7,30.14,SSE,153,1.0,3.0,96,0.00,-RA,,0.09,WeatherDisplay:10.37,2013-01-06 07:11:00,
2013-01-05 23:16:00,39.7,38.6,30.14,SSE,149,1.0,3.0,96,0.00,-RA,,0.09,WeatherDisplay:10.37,2013-01-06 07:16:00,
2013-01-05 23:21:00,39.6,38.6,30.14,SSE,149,0.0,3.0,96,0.00,-RA,,0.09,WeatherDisplay:10.37,2013-01-06 07:21:00,
2013-01-05 23:26:00,39.6,38.8,30.14,SSE,151,1.0,3.0,97,0.00,-RA,,0.09,WeatherDisplay:10.37,2013-01-06 07:26:00,
2013-01-05 23:31:00,39.6,38.8,30.14,SE,143,1.0,3.0,97,0.00,OVC,,0.09,WeatherDisplay:10.37,2013-01-06 07:31:00,
2013-01-05 23:36:00,39.7,38.9,30.14,SSE,163,2.0,4.0,97,0.00,OVC,,0.09,WeatherDisplay:10.37,2013-01-06 07:36:00,
2013-01-05 23:41:00,39.7,38.9,30.14,SE,141,0.0,1.0,97,0.00,OVC,,0.09,WeatherDisplay:10.37,2013-01-06 07:41:00,
2013-01-05 23:46:00,39.8,39.0,30.15,SSE,149,0.0,2.0,97,0.00,OVC,,0.09,WeatherDisplay:10.37,2013-01-06 07:46:00,
2013-01-05 23:51:00,39.9,39.1,30.15,South,176,1.0,4.0,97,0.00,OVC,,0.09,WeatherDisplay:10.37,2013-01-06 07:51:00,
2013-01-05 23:56:00,39.9,39.1,30.15,SSE,151,1.0,6.0,97,0.00,OVC,,0.09,WeatherDisplay:10.37,2013-01-06 07:56:00,